Rolla, MO

7:16 AM CST on November 19, 2017 (GMT -0600)
Rolla National

Weather History for KVIH - June, 2013

Change the Weather History Date:

Monday, June 3, 2013

  Actual Average Record
Temperature  
Mean Temperature 61 °F 69 °F  
Max Temperature 70 °F 79 °F 92 °F (1898)
Min Temperature 52 °F 59 °F 48 °F (1969)
Degree Days  
Heating Degree Days 4 1  
Month to date heating degree days 10 3  
Since 1 June heating degree days 10 3  
Since 1 July heating degree days 4950 4837  
Cooling Degree Days 0 5  
Month to date cooling degree days 3 15  
Year to date cooling degree days 110 122  
Since 1 June cooling degree days 3 15  
Growing Degree Days 11 (Base 50)    
Moisture  
Dew Point 53 °F    
Average Humidity 79    
Maximum Humidity 100    
Minimum Humidity 57    
Precipitation  
Precipitation 0.00 in 0.16 in 1.85 in (1965)
Month to date precipitation 0.24 0.50  
Year to date precipitation 21.54 17.31  
Sea Level Pressure  
Sea Level Pressure 30.02 in    
Wind  
Wind Speed 4 mph (ENE)    
Max Wind Speed 10 mph    
Max Gust Speed 14 mph    
Visibility 10 miles    
Events      
T = Trace of Precipitation, MM = Missing Value Source: NWS Daily Summary

Daily Weather History Graph

Daily Weather History Graph

Search for Another Location

Airport or City:

Trip Planner

Search our weather history database for the weather conditions in past years. The results will help you decide how hot, cold, wet, or windy it might be!

Date:

Astronomy

Jun. 03, 2013 Rise Set
Actual Time 5:45 AM CDT 8:25 PM CDT
Civil Twilight 5:14 AM CDT 8:56 PM CDT
Nautical Twilight 4:35 AM CDT 9:35 PM CDT
Astronomical Twilight 3:51 AM CDT 10:19 PM CDT
Moon 2:39 AM CDT (6/3) 4:00 PM CDT (6/3)
Length of Visible Light 15h 42m
Length of Day
14h 40m
Waning Crescent, 22% of the Moon is Illuminated
Jun 3
Waning Crescent
Jun 8
New
Jun 16
First Quarter
Jun 23
Full
Jun 29
Last Quarter

Hourly Weather History & Observations

Time (CDT) Temp. Dew Point Humidity Pressure Visibility Wind Dir Wind Speed Gust Speed Precip Events Conditions
12:53 AM 52.0 °F 51.1 °F 97% 30.02 in 10.0 mi Calm Calm - N/A   Clear
1:53 AM 52.0 °F 51.1 °F 97% 30.02 in 9.0 mi Calm Calm - N/A   Overcast
2:53 AM 54.0 °F 52.0 °F 93% 30.01 in 10.0 mi NE 3.5 mph - N/A   Overcast
3:53 AM 54.0 °F 52.0 °F 93% 30.01 in 10.0 mi NE 4.6 mph - N/A   Overcast
4:53 AM 54.0 °F 53.1 °F 97% 30.04 in 10.0 mi Calm Calm - N/A   Overcast
5:53 AM 54.0 °F 53.1 °F 97% 30.06 in 10.0 mi Calm Calm - N/A   Overcast
6:53 AM 54.0 °F 53.1 °F 97% 30.08 in 10.0 mi NNE 3.5 mph - N/A   Overcast
7:28 AM 55.4 °F 53.6 °F 94% 30.09 in 10.0 mi Calm Calm - N/A   Overcast
7:53 AM 55.9 °F 54.0 °F 93% 30.08 in 10.0 mi NNE 5.8 mph - N/A   Overcast
8:53 AM 59.0 °F 52.0 °F 78% 30.07 in 10.0 mi ENE 6.9 mph - N/A   Overcast
9:53 AM 62.1 °F 50.0 °F 65% 30.06 in 10.0 mi Calm Calm - N/A   Scattered Clouds
10:53 AM 63.0 °F 50.0 °F 63% 30.06 in 10.0 mi Calm Calm - N/A   Overcast
11:53 AM 64.9 °F 51.1 °F 61% 30.04 in 10.0 mi ENE 4.6 mph - N/A   Partly Cloudy
12:53 PM 66.0 °F 52.0 °F 60% 30.03 in 10.0 mi Variable 5.8 mph - N/A   Partly Cloudy
1:53 PM 66.9 °F 52.0 °F 59% 30.00 in 10.0 mi East 5.8 mph - N/A   Clear
2:53 PM 69.1 °F 53.1 °F 57% 30.00 in 10.0 mi Variable 3.5 mph - N/A   Partly Cloudy
3:53 PM 69.1 °F 54.0 °F 58% 29.99 in 10.0 mi ESE 5.8 mph - N/A   Partly Cloudy
4:53 PM 69.1 °F 53.1 °F 57% 29.96 in 10.0 mi ESE 4.6 mph - N/A   Clear
5:53 PM 70.0 °F 53.1 °F 55% 29.96 in 10.0 mi East 6.9 mph - N/A   Clear
6:53 PM 68.0 °F 54.0 °F 61% 29.96 in 10.0 mi East 3.5 mph - N/A   Clear
7:53 PM 66.0 °F 57.0 °F 73% 29.97 in 10.0 mi Calm Calm - N/A   Clear
8:53 PM 61.0 °F 55.9 °F 83% 29.97 in 10.0 mi East 4.6 mph - N/A   Clear
9:53 PM 60.1 °F 54.0 °F 80% 29.98 in 10.0 mi East 5.8 mph - N/A   Clear
10:53 PM 57.9 °F 54.0 °F 87% 29.99 in 10.0 mi East 5.8 mph - N/A   Clear
11:53 PM 55.9 °F 53.1 °F 90% 30.01 in 10.0 mi East 6.9 mph - N/A   Clear